RH
3 3 3 3 3 3 3 3 3 3 2 2 2 2 2 2 2 3 3 2 2 3 3 3 4 4 4 4 4 5 5 6 8 9 13 16 18 23 28 32 33 34 33 34 36 38 40 41 42 42 43 42 41 43 42 31 20 30 57 76 74 65 58 54 57 63 65 59 49 40 31 26 26 25 21 18 16 14 13 11 10 9 9 9 8 8 9 11 16 19 25 34 33 36 43 42 40
3 3 3 3 3 3 3 2 3 2 2 2 2 2 2 2 2 2 2 3 2 2 2 3 4 4 3 3 3 4 5 6 7 9 13 14 18 24 29 33 35 36 36 37 41 42 43 43 42 41 41 40 41 39 32 22 21 42 58 56 51 46 43 44 57 69 68 59 49 41 33 26 27 26 22 19 16 14 13 12 11 10 9 9 8 8 9 10 16 21 26 34 36 40 45 42 41
3 3 3 3 3 3 3 3 2 2 2 2 2 2 2 2 2 2 2 2 2 2 2 2 3 3 3 3 3 5 6 6 7 9 12 15 20 25 29 34 35 37 40 43 46 47 49 46 42 41 41 41 40 32 24 20 24 45 52 49 57 56 48 50 65 73 68 60 50 42 35 27 27 25 21 19 17 15 14 13 12 11 10 9 9 8 9 11 15 21 28 36 39 44 46 40 40
3 3 3 3 3 3 2 2 2 2 2 2 2 2 2 2 2 2 2 2 2 2 2 2 3 3 3 4 4 5 7 7 8 9 13 16 21 26 30 34 36 39 43 45 49 52 51 45 41 42 42 40 34 26 22 27 29 35 46 71 87 68 53 61 74 76 68 62 51 42 34 28 26 23 21 19 18 18 16 15 13 11 9 8 9 8 9 11 15 20 29 41 45 48 48 39 37
3 3 3 3 2 3 2 2 2 2 2 2 2 2 2 2 1 2 1 2 2 2 2 2 2 3 3 4 4 5 7 7 9 10 13 17 21 25 29 33 36 40 41 43 49 52 47 40 38 38 37 32 27 25 24 38 40 34 54 89 88 59 58 74 81 78 69 64 52 40 33 28 26 23 22 21 20 21 21 19 17 14 10 8 8 8 8 11 14 20 28 43 52 52 53 44 37
3 3 3 3 3 2 2 2 2 2 2 2 2 2 2 2 2 2 2 2 2 2 2 2 2 3 3 4 4 6 6 7 9 10 13 16 19 23 27 30 33 35 35 37 40 40 37 33 34 33 31 27 27 26 24 39 49 51 64 72 64 59 75 87 85 78 69 62 51 38 33 30 27 25 23 22 22 23 24 24 23 19 14 9 7 7 7 10 13 19 26 40 55 58 59 54 44
3 3 3 3 3 2 2 2 2 2 2 2 3 2 2 2 2 2 2 2 2 3 2 3 3 3 4 3 5 6 6 8 9 11 13 15 18 21 24 26 28 29 28 29 29 27 28 27 27 26 26 26 26 25 28 44 58 64 62 49 48 66 89 94 86 76 67 57 46 37 34 31 28 26 25 23 22 23 25 27 28 26 21 15 9 7 6 9 11 16 24 35 51 62 66 65 57
3 3 3 3 3 3 2 3 3 3 3 3 3 3 3 2 2 2 2 2 3 3 3 3 2 4 4 3 7 7 7 9 10 12 13 15 18 21 24 25 26 26 26 25 25 25 25 24 25 25 27 27 29 29 32 48 58 57 52 48 52 71 90 89 81 73 62 51 42 37 34 31 29 26 24 22 20 19 20 25 29 30 29 25 17 10 6 7 9 12 22 32 44 58 69 74 71
3 3 3 3 3 3 3 3 3 3 3 3 3 3 3 3 3 3 2 3 3 3 3 3 3 5 5 4 7 7 7 10 12 13 14 18 22 26 30 31 30 31 30 29 29 28 27 28 29 31 31 31 31 28 31 38 41 48 48 46 61 80 88 82 78 69 56 49 42 39 36 32 29 26 24 21 20 19 19 23 28 33 32 31 27 19 12 8 9 12 23 35 43 53 65 76 80
4 4 3 3 3 3 3 3 3 3 4 3 3 3 3 3 3 3 3 3 3 4 3 3 4 5 6 7 8 8 10 11 13 16 17 22 28 31 34 36 36 35 33 31 30 30 29 29 30 29 29 36 35 23 35 49 46 64 65 50 70 91 89 82 75 63 54 50 45 43 38 33 30 27 26 24 23 23 25 28 30 35 36 34 32 27 20 12 11 14 25 39 46 51 58 71 80
4 4 4 4 4 4 3 4 4 4 4 3 3 3 3 3 3 3 3 3 3 4 4 4 6 6 7 8 9 11 12 14 17 19 21 24 29 30 32 34 32 30 30 29 27 26 25 24 25 23 23 34 39 28 39 69 76 77 74 70 88 97 87 78 67 58 55 51 49 45 37 33 31 28 28 26 26 28 32 37 38 38 40 39 35 31 26 19 14 14 23 37 47 52 56 66 75
4 4 4 4 4 4 4 4 4 4 3 3 3 3 3 3 3 3 3 4 3 5 6 7 8 8 11 12 13 14 16 19 20 22 23 23 25 26 27 27 25 26 25 24 21 20 19 19 22 21 21 22 33 46 42 67 92 77 72 86 98 96 82 70 61 59 56 54 52 45 39 34 30 28 28 29 28 30 30 39 48 44 42 43 41 37 30 24 18 15 19 28 42 51 56 64 71
5 5 5 5 5 5 5 5 4 4 4 3 3 3 3 3 3 3 4 4 3 6 7 9 10 11 15 15 17 20 21 23 23 23 23 23 23 24 24 23 23 23 20 19 16 15 14 16 21 25 42 39 35 59 53 58 87 82 81 91 95 94 79 66 62 61 59 57 55 49 43 36 33 33 34 34 31 30 27 34 51 48 39 39 42 42 38 30 22 17 17 21 31 45 56 63 67
6 6 6 6 6 6 6 6 5 4 4 4 4 3 4 3 4 3 4 5 5 7 9 13 13 15 19 18 20 26 25 25 25 23 23 23 22 23 23 22 22 20 16 14 11 11 13 18 25 33 54 52 38 60 65 65 89 92 88 89 91 91 76 66 64 62 61 59 58 52 45 41 43 46 45 42 36 36 37 38 45 43 33 28 31 37 39 36 27 19 17 18 22 33 49 61 65
7 7 7 7 7 7 7 7 6 5 4 4 4 4 4 4 4 4 5 5 7 8 11 16 16 21 26 21 25 28 26 26 24 23 24 22 20 20 21 20 19 16 13 11 10 10 21 29 26 30 33 29 41 72 85 85 97 96 86 84 87 83 71 65 62 61 63 63 59 50 46 50 53 53 49 47 44 46 48 44 41 39 32 24 21 25 30 33 31 24 19 19 20 24 34 50 62
7 7 7 8 8 8 9 8 6 6 5 5 5 5 5 5 4 4 5 6 9 10 13 18 17 22 27 23 25 26 24 23 21 21 21 20 18 17 18 18 15 13 13 12 12 18 36 43 35 44 43 35 55 82 93 93 92 85 76 78 78 73 67 61 61 64 66 65 56 49 51 53 50 48 46 45 44 41 38 36 34 33 30 25 21 20 21 25 28 28 23 19 19 21 22 32 50
8 8 8 9 9 10 10 9 7 6 6 6 6 5 6 5 5 5 6 6 9 11 13 18 17 20 25 24 22 20 19 19 18 19 18 17 16 17 18 16 14 21 34 33 24 31 46 45 40 59 67 54 58 70 77 76 75 75 71 73 74 68 64 61 64 67 68 62 51 50 54 52 46 43 41 39 36 33 30 27 27 26 24 23 21 21 22 23 25 27 26 21 19 20 19 20 30
9 8 9 10 10 11 10 9 7 7 6 6 7 6 7 6 6 6 6 6 7 10 12 15 18 20 22 21 19 17 17 18 18 18 17 18 17 20 20 17 26 43 63 61 47 48 52 53 54 65 70 60 57 65 66 60 61 66 68 72 73 69 66 66 68 69 67 58 50 50 52 50 45 41 38 36 35 32 29 26 25 24 23 23 22 23 27 28 26 26 27 25 20 18 19 18 18
10 10 11 11 11 11 11 10 7 7 7 7 7 7 7 7 7 7 6 7 6 10 11 13 17 17 17 16 16 15 17 19 20 20 17 18 18 20 20 19 38 62 71 69 70 75 71 66 69 74 75 67 62 64 61 56 57 63 71 75 74 73 71 71 71 69 64 57 53 50 48 45 42 39 37 36 35 29 25 24 22 20 22 24 25 26 32 36 31 28 29 28 24 20 19 18 16
12 12 13 13 13 12 12 11 9 8 8 8 8 7 8 8 8 8 8 8 8 10 10 11 13 12 12 12 15 17 21 23 21 18 15 17 16 18 20 21 43 69 69 66 76 88 82 65 65 75 74 65 62 60 56 57 60 67 77 78 75 76 74 74 73 68 63 59 55 49 44 41 39 37 35 32 28 22 19 20 20 22 29 38 42 40 44 47 39 33 32 31 27 22 19 17 16
13 14 16 15 14 14 14 12 10 10 10 10 9 9 9 8 9 9 10 10 10 10 10 10 10 9 12 16 21 24 23 21 16 14 15 15 14 17 22 27 50 73 73 71 74 80 82 69 61 68 66 64 67 64 61 61 63 67 73 74 75 77 75 75 72 67 62 56 50 44 41 39 36 33 29 25 20 16 15 17 18 23 38 55 65 63 59 57 49 40 37 36 31 24 20 18 17
15 16 17 17 16 16 15 14 13 12 12 12 11 11 10 10 9 9 11 12 11 12 12 12 12 16 21 24 25 23 20 17 15 14 13 12 13 18 21 26 45 74 84 76 75 81 83 70 53 52 61 73 80 78 76 74 73 73 73 75 78 79 77 74 70 63 56 49 44 41 39 35 31 27 22 17 14 11 11 13 15 24 42 56 67 72 69 63 54 48 45 43 39 29 21 19 21
16 18 18 18 17 17 16 15 15 14 14 13 12 12 11 11 10 10 12 12 13 14 16 18 23 27 29 26 22 20 18 15 14 11 11 14 16 18 19 21 28 58 81 75 79 90 84 67 47 43 54 68 75 75 78 80 82 84 82 81 80 77 72 65 58 51 45 41 38 35 32 28 24 20 15 11 10 10 11 11 12 21 34 45 57 67 72 69 60 54 51 51 50 42 30 22 23
18 20 19 18 19 18 16 16 17 16 15 14 12 12 12 12 11 11 12 12 14 16 20 27 32 33 28 23 20 19 16 14 12 10 14 17 20 20 19 27 34 52 76 82 85 83 77 64 46 49 58 65 71 74 81 86 85 84 80 75 69 62 56 50 45 40 38 35 33 30 27 24 20 15 11 9 9 8 9 10 11 15 24 42 60 69 77 79 72 65 60 60 59 56 50 37 28
19 21 20 19 20 18 16 17 17 17 16 14 13 14 13 13 12 12 13 13 14 16 22 30 34 31 26 22 19 18 15 12 12 13 18 20 21 23 21 30 48 67 82 88 82 71 73 63 44 54 65 69 78 80 81 80 74 69 65 60 56 53 49 45 41 36 33 31 30 27 23 19 16 14 10 7 8 10 10 8 9 18 37 58 71 75 82 88 86 82 78 78 76 74 74 65 48
20 21 20 19 20 19 16 17 17 17 17 16 15 16 14 13 13 13 14 14 15 18 22 29 31 27 22 20 20 18 14 12 13 15 20 22 22 23 23 26 43 73 88 89 84 74 73 62 43 50 61 68 75 73 70 66 63 62 61 61 58 52 45 39 35 31 28 26 22 23 28 28 22 14 11 11 9 6 7 10 11 25 50 65 72 79 86 92 93 93 93 96 96 94 94 90 78
20 20 19 19 21 19 17 17 17 17 17 17 17 18 16 14 13 14 15 15 16 18 22 27 27 23 20 19 20 17 14 14 15 18 21 22 22 22 26 26 35 70 94 93 86 77 72 61 49 57 70 74 72 70 71 70 70 72 71 66 54 42 34 32 31 28 23 18 18 27 35 36 33 28 34 48 47 27 11 10 15 32 50 58 69 78 79 82 86 94 99 100 100 100 100 100 97
19 19 19 20 20 19 18 18 18 18 18 19 19 19 17 15 15 16 16 16 16 18 21 24 23 20 20 20 20 18 16 17 17 20 20 20 24 24 26 27 32 61 93 98 84 78 78 67 62 74 79 76 75 79 81 82 81 77 68 53 39 32 29 28 26 24 17 15 20 25 23 21 26 32 43 58 65 63 53 36 25 37 50 53 62 64 62 64 71 85 96 100 100 99 100 100 100
18 19 19 19 20 20 19 19 19 19 19 20 20 19 19 18 18 18 17 17 17 18 20 23 21 19 21 21 21 20 18 18 18 20 19 22 27 27 33 41 40 49 72 82 75 79 84 75 78 86 83 81 85 89 89 88 80 64 48 36 32 28 25 22 21 18 12 13 18 17 14 13 15 19 25 31 41 63 86 74 43 42 52 51 57 59 55 58 62 71 82 87 90 95 101 101 100
17 19 20 19 20 20 20 20 20 20 20 20 20 20 20 20 20 20 20 19 18 19 20 22 21 19 21 21 21 20 18 18 19 19 19 26 27 28 44 50 44 50 62 60 54 66 74 73 84 89 88 91 89 89 89 80 63 45 35 32 29 23 19 18 16 13 9 11 13 11 12 14 11 9 12 19 29 48 79 91 61 43 53 54 59 63 55 55 59 62 65 67 74 88 97 97 99
17 18 19 20 20 20 20 20 20 20 20 21 21 21 21 21 21 20 20 21 19 20 20 21 21 20 21 21 21 18 17 18 18 19 21 26 26 33 48 42 37 61 82 79 68 71 68 62 78 92 89 85 82 80 73 57 43 35 32 30 25 20 19 16 12 8 8 10 10 9 9 10 10 8 8 11 23 35 55 86 74 43 50 58 57 57 49 49 52 54 54 54 62 74 82 85 89
16 18 19 20 20 20 20 20 21 21 21 21 22 21 21 21 21 20 20 20 20 20 20 21 20 20 21 20 20 18 18 18 18 21 22 23 26 35 44 35 39 68 84 87 88 90 81 59 62 78 75 68 67 62 50 40 37 36 33 29 26 23 18 14 10 8 9 8 9 10 8 9 8 8 10 7 16 25 33 71 76 45 46 56 52 47 41 43 46 47 48 48 52 57 63 69 73
15 17 19 20 21 21 21 21 21 21 21 21 22 21 21 21 20 19 19 19 20 20 19 21 20 20 21 20 19 18 19 20 20 22 21 21 25 30 36 29 39 69 78 79 86 90 90 78 62 55 56 58 56 47 40 39 42 42 36 30 29 26 20 14 12 9 9 9 9 10 9 10 9 8 9 7 16 24 29 56 60 40 43 48 47 41 34 36 41 43 43 45 52 53 51 49 50
15 17 19 20 21 21 21 21 21 21 21 21 21 21 20 20 20 20 20 19 19 19 20 20 20 20 20 19 19 18 20 24 24 23 22 22 24 26 32 26 29 61 81 81 87 83 82 90 78 53 48 54 49 42 43 46 50 51 43 34 30 27 23 18 15 12 12 12 10 11 11 10 10 9 8 8 14 18 21 33 33 32 38 36 37 37 29 29 34 37 37 42 52 55 50 44 38
15 17 19 19 20 21 21 21 21 21 21 20 20 20 20 19 20 20 19 19 18 18 20 20 20 20 21 21 20 20 23 29 28 26 25 24 26 25 27 26 22 49 80 83 88 86 72 75 76 59 48 48 47 47 51 56 60 61 52 42 35 32 30 25 19 15 14 15 14 13 13 13 11 10 9 8 9 9 11 16 19 28 32 26 29 32 27 22 24 28 28 33 40 42 40 36 34
16 16 18 18 19 20 21 21 20 20 20 20 19 19 19 18 19 19 18 18 17 17 18 20 21 20 21 22 22 23 28 34 33 29 29 25 25 24 23 26 22 42 80 88 89 90 76 69 74 70 55 46 50 53 57 62 65 64 57 47 42 40 38 32 25 18 16 18 17 16 15 16 15 12 9 8 8 7 8 11 16 24 26 24 25 27 27 21 17 17 17 20 22 24 23 19 21
15 16 17 17 18 19 19 19 19 19 19 18 19 18 18 17 17 17 16 15 14 16 18 20 20 20 23 26 27 29 32 38 36 31 31 27 25 24 24 27 24 40 80 97 94 88 81 75 73 72 62 52 54 55 55 59 61 61 56 49 46 43 39 36 30 23 19 19 19 17 16 16 17 16 13 9 8 8 7 9 14 21 24 24 24 25 26 24 18 13 10 12 16 18 16 12 14
16 16 17 17 17 18 18 18 18 18 17 17 17 16 16 15 15 14 13 13 13 15 20 21 21 21 26 32 36 36 36 39 39 34 32 30 29 26 27 32 32 38 62 86 91 82 75 66 55 60 64 57 53 50 47 53 58 59 56 52 48 42 37 33 28 23 19 19 20 18 16 15 16 16 15 12 9 9 8 8 12 18 23 23 23 22 22 25 22 15 10 12 19 22 16 10 12
16 16 16 16 17 17 16 17 16 15 15 14 14 13 13 12 12 12 11 11 15 18 21 23 29 35 38 42 44 43 43 43 40 34 31 33 33 29 30 32 32 34 40 51 60 59 56 48 42 56 63 53 48 46 47 54 59 58 56 54 51 45 37 28 24 21 19 19 19 18 16 15 16 16 16 14 12 10 9 9 10 15 19 21 21 18 16 20 21 16 12 11 15 18 15 11 11
13 13 14 14 14 15 14 14 13 13 12 12 13 14 14 13 13 14 14 16 19 22 25 30 40 51 53 52 51 51 50 45 39 34 31 31 32 32 33 29 28 41 47 43 44 43 39 34 37 52 53 45 45 47 49 53 54 54 50 49 52 50 39 28 25 24 22 21 19 19 19 16 15 15 15 15 14 12 11 10 10 10 12 15 17 15 12 13 14 13 10 10 10 11 12 10 10
9 10 10 11 11 12 12 11 10 10 11 12 17 22 23 19 21 25 24 26 28 31 37 42 50 56 55 51 50 53 52 44 38 34 31 30 30 32 39 35 32 43 47 40 37 32 24 20 24 35 40 39 41 43 45 45 46 49 47 47 52 53 45 38 39 38 33 29 26 26 32 32 25 19 16 16 15 14 13 11 11 10 10 11 11 11 10 9 9 9 9 9 9 9 10 10 9
8 8 8 9 9 10 10 10 10 11 16 19 23 33 38 29 30 38 38 37 41 45 48 52 57 59 55 50 48 48 47 43 38 35 33 33 33 36 43 43 35 33 30 25 23 20 17 17 17 22 27 29 33 37 37 35 39 47 48 47 47 44 45 47 45 37 30 32 34 35 39 46 44 31 20 17 17 16 15 13 13 12 11 10 10 9 9 9 9 10 10 9 9 9 9 9 10
8 8 8 9 9 10 11 11 13 18 26 31 28 37 49 44 38 44 45 46 50 53 55 56 59 61 57 53 49 46 46 45 41 37 37 41 44 46 47 44 36 29 25 22 21 20 21 21 20 21 21 22 25 28 28 30 39 49 49 46 41 38 41 44 35 23 19 22 28 34 37 44 48 39 26 19 17 16 16 15 13 13 13 12 11 10 9 9 9 10 10 9 9 9 10 10 10
9 10 10 10 10 11 14 14 18 25 34 42 40 40 51 55 50 46 45 48 53 57 59 61 62 60 58 56 51 48 51 52 46 40 42 47 52 52 49 42 32 25 23 22 22 24 26 26 25 24 22 23 24 25 28 33 41 46 44 40 39 40 39 34 26 24 25 21 21 24 24 26 28 28 26 22 18 16 15 16 15 13 13 13 12 12 11 10 10 10 10 10 10 10 11 12 11
11 11 11 13 13 13 16 18 22 30 40 52 54 49 49 54 54 50 46 47 54 60 64 67 66 61 57 55 52 52 57 58 52 46 44 48 50 50 49 40 26 20 20 22 23 25 27 28 27 25 24 25 26 28 28 30 33 34 34 37 39 39 37 32 27 30 30 24 29 33 20 13 13 15 22 26 23 19 15 14 15 14 14 13 13 13 12 12 12 12 12 12 13 13 13 13 13
12 12 12 14 16 16 16 20 24 30 41 54 60 58 54 53 54 51 49 49 54 62 67 70 70 63 58 56 56 59 65 66 61 53 50 49 46 43 43 33 21 26 35 37 35 33 31 30 28 26 27 28 28 29 28 27 27 27 29 35 38 36 35 36 34 35 31 23 38 50 30 13 14 17 23 29 28 23 17 14 13 13 13 13 13 13 13 13 13 13 13 13 13 12 12 12 11
13 13 13 13 16 18 19 22 25 30 42 51 56 61 60 57 55 52 52 53 55 59 62 62 62 61 61 64 68 72 76 77 73 65 57 52 45 39 36 27 22 39 60 67 61 51 42 36 32 30 29 29 29 28 29 28 27 29 31 32 33 31 29 31 32 33 33 30 43 58 42 24 28 33 33 34 32 26 19 14 11 10 11 12 12 13 13 13 13 12 12 12 11 10 9 9 9
15 14 15 15 17 20 23 27 28 32 42 46 49 56 58 59 58 55 57 59 59 60 58 53 54 61 68 73 79 82 84 85 82 73 63 55 50 42 34 29 29 40 59 78 85 77 63 51 44 40 33 29 30 29 29 29 28 27 29 29 28 28 25 27 29 28 34 43 52 62 58 48 49 50 47 41 33 27 20 14 11 9 9 9 10 11 11 11 11 11 10 9 8 7 6 6 6
17 18 19 20 21 21 24 30 31 32 39 45 50 54 56 59 59 58 63 65 65 65 61 57 59 68 76 78 80 82 84 84 81 75 68 64 60 50 39 36 39 39 42 61 80 86 84 78 72 64 51 37 30 31 30 29 31 29 27 28 27 27 25 24 27 28 35 47 55 63 73 73 67 61 55 46 33 25 19 14 12 10 7 7 7 8 8 9 9 9 8 7 6 6 5 5 4
26 27 28 28 28 26 24 26 27 28 34 44 52 56 59 62 60 60 64 67 68 68 67 66 67 72 79 80 78 77 77 77 76 77 77 74 64 49 37 31 32 34 35 42 55 66 74 80 83 82 78 62 42 41 44 33 27 24 21 23 21 20 21 19 24 31 37 49 61 72 84 86 79 70 62 53 37 24 18 15 13 11 9 6 6 6 6 6 7 6 6 5 5 4 4 4 4
43 41 39 38 37 34 32 28 26 26 31 41 50 57 63 65 65 63 64 66 69 71 75 76 76 79 83 84 79 74 72 69 68 71 74 75 65 46 35 36 41 50 52 45 46 60 70 71 72 72 80 81 58 44 43 32 27 32 34 38 37 31 30 33 44 50 51 63 81 92 95 93 88 78 68 60 45 26 17 14 12 11 10 8 6 6 5 5 5 5 5 4 4 3 3 3 4
47 44 42 44 43 41 40 36 33 31 33 37 45 56 64 67 70 68 65 66 68 71 77 80 82 84 85 88 86 80 75 65 57 58 62 65 58 41 36 46 60 77 80 65 55 70 83 76 66 59 64 81 78 57 42 36 41 52 56 59 61 58 52 55 65 67 64 74 90 99 99 98 97 85 70 60 48 31 20 15 13 12 11 10 9 7 6 5 4 4 4 3 3 3 3 3 3
52 49 47 50 51 49 49 45 38 35 34 34 38 53 68 73 75 74 71 73 73 75 79 81 83 84 84 86 84 79 75 61 46 43 47 52 45 38 46 54 62 77 82 73 67 79 91 81 67 60 54 68 89 82 58 44 40 42 48 56 65 68 63 62 68 71 71 76 88 99 100 100 100 81 57 47 40 31 23 18 16 15 13 13 11 9 8 6 5 4 3 3 3 3 3 3 3
62 64 62 61 60 55 53 51 45 39 36 34 34 46 64 75 79 79 78 79 79 81 84 85 86 84 82 80 76 71 65 49 36 35 41 43 35 39 60 70 72 78 79 77 82 90 92 77 63 58 48 52 76 78 59 49 45 45 54 63 66 64 60 65 74 81 85 85 88 98 100 100 99 74 46 39 36 28 24 22 20 20 20 19 17 16 14 11 10 8 7 6 6 7 8 8 9
63 68 71 70 67 60 54 51 46 41 38 35 34 38 48 61 72 79 82 83 82 83 84 83 80 75 71 68 63 57 47 32 27 35 42 40 36 43 60 69 71 75 78 83 91 95 91 75 63 56 44 42 52 50 44 46 47 46 50 55 59 57 57 70 80 83 90 90 86 93 100 102 98 73 48 44 41 32 29 27 25 26 26 25 24 23 21 20 18 16 14 14 14 15 16 16 17
60 62 69 70 67 66 64 59 53 49 44 38 36 36 37 42 49 56 62 65 64 65 62 57 53 51 50 48 42 36 32 28 27 34 38 35 41 56 65 69 68 66 74 83 84 92 96 82 65 53 40 33 32 29 29 32 30 30 32 33 40 44 47 57 63 61 64 67 70 82 97 100 91 71 52 48 49 50 49 44 36 31 29 29 30 29 28 27 25 24 22 22 22 23 23 23 23
68 65 68 67 62 62 64 65 61 57 52 45 40 37 35 36 37 37 40 42 41 42 39 36 33 33 34 34 34 31 30 31 28 30 34 31 39 60 70 71 68 67 75 76 69 79 92 81 62 47 36 32 30 27 28 28 27 29 30 28 28 31 33 35 38 41 44 46 52 62 69 69 68 65 58 53 55 59 60 56 49 40 34 32 32 32 32 31 29 28 28 28 29 29 29 29 28
74 73 72 69 66 65 64 64 62 59 57 54 47 42 41 43 43 41 42 43 42 40 36 32 30 29 29 32 37 37 35 37 37 37 39 34 36 53 66 67 68 73 75 67 62 71 77 68 54 43 36 33 29 27 27 27 27 27 26 27 26 25 26 23 22 30 34 35 43 51 52 47 47 56 63 62 62 60 57 54 50 43 37 34 35 36 36 35 33 32 32 32 33 34 33 31 30
Wind_Speed
34 34 34 34 34 34 34 33 33 32 31 30 29 29 28 28 28 28 29 29 30 32 32 31 31 31 31 31 31 31 31 30 30 29 28 29 28 28 27 26 26 25 25 23 22 22 22 23 24 25 26 27 29 30 30 31 31 27 22 21 23 24 25 25 25 24 23 22 21 20 19 18 17 16 16 16 16 15 15 14 14 13 13 12 11 11 12 12 11 10 7 6 7 6 5 5 7
33 33 34 34 34 34 34 33 33 32 31 31 30 29 28 29 29 29 30 29 31 32 32 31 30 31 32 32 32 32 31 31 31 30 30 30 29 28 28 27 27 27 26 25 24 23 23 24 26 27 28 28 29 30 31 32 30 26 23 24 25 26 26 25 24 24 23 23 22 21 20 18 17 16 16 16 16 15 15 14 14 14 13 13 12 12 12 12 12 10 8 7 7 7 6 6 7
32 33 33 33 34 34 34 33 33 32 32 31 30 29 29 29 30 31 30 30 31 32 31 30 30 31 32 32 32 32 32 31 31 31 31 31 30 29 29 28 28 27 26 25 24 24 24 25 27 28 28 29 29 30 31 31 29 25 25 25 24 23 24 24 23 23 23 23 22 21 20 18 16 16 16 16 16 15 15 14 13 13 13 13 12 12 12 12 12 11 9 8 8 8 8 8 8
32 33 33 33 33 33 34 33 32 32 31 29 28 29 29 30 31 31 30 31 32 32 32 31 30 31 32 32 33 32 32 32 32 32 32 31 31 30 30 29 28 27 26 26 25 25 25 26 28 29 29 29 29 29 30 30 29 26 25 23 21 22 23 23 22 22 23 22 22 20 19 18 16 16 15 16 16 16 15 14 13 13 13 13 12 12 12 12 12 12 11 10 9 9 9 9 9
32 32 32 32 32 32 32 32 31 30 28 27 28 28 28 29 31 31 30 31 32 31 32 32 31 31 31 32 33 33 33 33 33 33 32 31 31 31 31 30 29 29 28 27 26 26 26 27 29 29 30 29 29 29 30 29 29 27 24 21 21 23 23 22 21 21 22 22 21 20 19 17 16 15 15 16 16 16 16 15 14 12 12 12 12 12 13 13 12 12 12 12 10 10 10 9 10
31 31 31 31 31 31 31 30 29 27 27 27 27 26 27 29 31 31 31 32 31 31 31 31 31 31 31 32 33 34 34 34 33 33 32 32 32 31 31 31 30 29 28 27 27 27 28 29 30 30 30 30 29 28 30 30 28 26 23 22 23 23 22 21 21 21 21 21 21 20 18 17 16 16 15 15 16 16 15 15 14 13 12 12 12 12 13 13 13 13 13 13 12 12 12 11 11
29 29 30 30 30 30 29 29 28 27 27 26 24 25 27 29 31 31 32 32 31 31 31 31 31 31 32 33 33 33 34 34 34 33 33 33 32 31 31 30 30 29 29 28 28 29 30 31 32 32 33 32 30 28 29 29 26 26 25 26 25 23 21 20 20 20 20 20 20 19 18 17 17 16 16 16 16 16 16 15 14 13 12 11 11 12 13 14 13 14 14 14 14 13 13 12 12
28 28 29 29 29 28 28 27 27 27 26 24 23 25 28 30 32 32 31 31 31 31 30 30 31 31 32 33 32 33 34 34 34 34 34 33 32 31 31 30 30 30 30 31 31 32 32 33 34 35 34 33 31 29 28 28 27 27 28 29 27 24 22 19 19 18 18 18 18 18 18 18 17 18 18 18 18 18 18 17 16 14 13 12 11 12 13 14 14 14 15 14 14 15 14 14 14
27 27 27 28 28 27 26 25 25 25 24 24 23 25 29 31 31 30 30 30 31 30 30 30 31 31 31 32 32 33 34 34 34 34 34 33 33 32 31 31 31 31 31 32 33 33 34 35 36 35 35 35 33 32 30 29 27 27 28 29 29 26 22 20 18 17 16 16 17 18 18 19 19 19 20 20 20 20 20 19 17 15 14 13 12 12 13 15 15 15 15 15 15 15 15 15 15
26 26 26 26 26 26 25 24 24 24 24 24 24 26 30 30 29 28 29 30 30 30 30 30 30 30 30 32 32 33 33 34 34 33 34 33 33 32 32 31 31 31 31 33 34 35 36 36 36 35 35 34 32 32 30 28 26 25 25 28 29 27 23 19 16 14 14 16 17 18 19 20 21 21 22 21 21 20 20 19 18 17 15 15 14 13 13 15 16 16 16 16 15 15 16 16 16
26 25 25 25 25 24 24 24 23 23 24 25 26 28 27 26 27 27 28 30 30 29 29 29 29 30 30 30 31 32 33 33 33 33 34 34 33 33 33 32 32 32 32 34 35 36 37 36 35 34 33 30 30 30 28 26 26 25 23 26 27 24 21 16 13 13 14 16 18 19 20 21 22 23 23 23 22 20 19 19 19 17 16 15 15 14 14 15 17 17 16 16 16 16 16 16 17
25 24 24 24 24 23 23 23 22 23 24 25 27 27 24 24 26 27 28 29 29 29 29 29 29 29 29 29 31 32 32 33 33 34 34 35 35 34 33 33 33 34 34 36 36 37 37 36 34 31 29 27 26 26 26 26 27 26 23 24 24 20 18 14 12 13 15 17 19 20 21 23 24 24 25 24 22 20 19 20 19 17 16 16 16 16 15 16 17 18 18 17 17 17 17 17 18
24 23 23 22 22 22 21 21 21 22 24 25 25 24 22 23 26 27 28 28 29 29 29 29 29 28 29 29 30 31 32 33 33 35 35 36 35 35 34 35 35 35 36 36 36 36 36 35 31 26 23 21 21 22 24 26 30 29 23 20 19 18 17 14 13 14 16 18 20 22 23 24 25 26 26 24 22 21 21 21 18 15 15 15 16 17 17 17 17 18 19 18 17 17 18 18 19
23 22 22 21 20 20 18 19 20 22 23 23 23 23 22 23 24 27 28 28 29 29 29 29 28 28 28 30 30 31 32 33 34 35 36 37 36 36 36 36 36 35 36 36 36 36 35 32 26 22 21 19 19 20 23 25 27 26 20 15 15 17 17 15 14 16 18 20 21 23 24 25 26 26 25 24 24 24 24 22 19 16 15 15 15 17 18 18 18 18 19 19 19 18 19 20 20
23 22 21 20 19 18 17 18 19 21 21 21 22 22 21 22 23 26 28 29 29 29 29 29 29 28 28 29 30 31 32 33 34 35 36 37 36 36 36 36 35 35 35 34 34 34 30 25 21 20 20 20 19 17 19 22 21 19 16 15 16 18 20 18 17 18 19 20 22 23 25 25 25 24 24 25 25 25 24 23 22 21 20 18 17 17 18 19 19 18 18 20 21 20 20 20 22
22 21 21 19 17 16 16 17 19 20 20 20 21 21 21 21 23 26 28 29 29 30 30 29 29 28 28 30 31 32 33 33 34 35 35 35 35 35 36 36 35 34 33 33 32 30 24 19 17 18 18 17 16 14 15 18 19 19 18 17 19 21 21 19 18 18 20 21 23 23 24 23 23 23 23 24 24 24 22 21 21 22 22 21 20 19 20 20 20 19 19 20 22 22 22 22 22
21 20 19 17 16 15 15 18 20 21 21 20 21 21 20 20 22 25 28 29 29 30 30 30 31 30 30 31 32 32 33 33 34 34 34 34 35 35 36 35 33 31 30 29 26 22 19 17 16 16 15 14 15 14 14 16 19 20 19 18 20 21 20 19 19 19 21 22 23 23 23 23 24 24 24 24 23 22 21 20 20 21 21 21 20 20 20 21 22 21 20 20 22 23 23 24 24
20 19 17 15 14 15 15 18 20 21 21 21 21 21 20 20 22 24 27 28 28 29 31 31 32 33 33 33 33 33 33 33 34 34 33 33 35 35 34 32 27 25 25 26 23 19 17 16 15 16 15 13 14 13 14 17 19 20 19 19 19 19 19 19 20 20 22 23 24 25 25 26 26 26 26 25 24 22 21 20 20 20 20 20 20 20 20 20 22 23 22 22 22 23 24 24 25
19 17 16 15 14 15 16 18 20 20 20 20 20 20 20 20 21 22 24 26 28 30 31 32 33 33 33 33 33 33 33 33 33 33 33 33 34 33 30 27 24 20 20 21 20 18 15 12 12 12 11 11 12 12 15 17 19 20 19 19 19 19 20 20 20 21 23 25 25 26 26 27 27 27 27 25 23 22 21 20 20 20 19 19 20 20 20 20 22 23 24 23 23 23 24 24 25
19 17 15 14 15 16 17 18 20 20 19 19 20 20 19 18 18 19 22 25 27 30 32 32 32 31 31 31 31 32 31 31 32 33 33 33 32 29 26 23 21 19 19 15 13 16 13 11 11 10 9 10 11 13 15 17 18 18 18 19 20 20 20 20 21 23 25 26 26 26 26 26 26 26 25 23 22 21 20 19 19 18 18 18 17 18 19 20 22 24 25 25 24 23 23 23 24
19 17 15 15 16 17 17 18 19 18 17 19 19 18 17 16 15 17 19 23 26 28 30 29 28 28 28 28 29 29 29 31 32 32 31 30 27 24 22 19 17 18 17 12 14 18 14 11 11 10 9 11 12 14 15 16 17 18 19 20 21 21 21 22 23 25 26 26 26 25 25 25 25 24 23 22 22 21 20 19 18 17 17 16 16 16 17 20 22 23 24 24 24 23 22 23 23
19 17 16 16 18 19 18 19 19 18 17 18 17 16 15 13 13 14 17 21 23 25 26 25 24 24 24 25 26 27 29 30 30 29 27 24 21 19 18 17 16 15 13 11 13 15 13 14 12 11 10 11 12 14 15 16 18 19 20 21 21 22 22 23 24 25 25 25 24 24 24 24 24 23 21 20 20 20 19 18 17 17 16 16 16 16 17 19 22 23 24 24 23 22 21 21 22
19 18 17 17 19 20 20 20 19 18 17 17 16 15 14 13 13 14 17 20 20 21 21 22 23 23 23 23 24 25 27 27 26 25 21 17 14 13 14 14 14 14 14 14 12 11 13 20 14 12 12 12 12 12 13 16 17 19 20 20 21 21 22 22 22 23 24 24 23 24 24 23 22 21 19 19 19 18 18 18 17 17 16 16 16 16 17 18 20 21 22 22 23 22 21 20 21
20 18 18 19 20 21 22 20 19 17 17 17 15 15 14 13 14 15 18 18 17 18 20 21 24 23 23 23 23 24 25 25 23 20 15 12 10 9 11 11 11 12 13 14 11 10 16 21 15 12 12 12 12 12 13 14 16 17 18 18 18 19 19 20 20 21 23 24 23 23 22 21 20 19 19 18 18 18 18 18 17 17 17 17 16 16 17 18 19 20 21 21 21 22 21 20 21
21 19 20 21 22 23 23 20 19 17 17 17 15 14 14 14 14 15 17 16 16 18 19 21 23 23 23 22 22 23 23 22 19 14 11 10 8 7 10 11 10 12 13 13 10 10 15 18 16 13 13 12 11 12 13 14 16 16 17 17 17 17 18 19 20 21 22 23 22 21 21 20 19 19 18 18 18 17 17 17 16 16 16 17 17 16 15 16 17 18 19 19 20 22 23 21 21
23 22 23 23 24 25 23 21 19 18 17 17 15 14 15 14 13 13 14 14 15 15 16 18 19 20 20 20 20 20 20 19 15 11 9 9 8 9 10 11 11 13 17 17 11 8 13 18 17 15 13 12 11 11 12 13 15 15 16 16 16 17 18 19 20 21 21 20 20 21 20 19 19 19 19 19 18 16 16 16 14 13 14 14 14 13 13 14 15 17 18 19 19 21 22 22 21
25 25 25 24 25 26 23 21 21 19 18 17 15 15 15 14 12 12 12 13 13 13 14 16 17 17 17 17 18 18 18 16 13 11 10 10 11 11 12 12 12 14 19 19 12 8 14 18 16 14 12 10 10 10 11 13 14 15 15 15 16 18 18 19 20 20 20 20 21 21 19 18 18 19 20 20 18 16 15 14 13 12 11 11 10 9 9 10 11 14 17 19 19 19 20 22 21
27 26 25 25 26 26 23 22 21 20 19 18 16 16 16 13 11 11 12 12 13 14 15 16 16 15 15 15 16 17 17 15 13 12 11 11 13 13 14 14 12 14 18 19 13 11 16 18 15 12 10 10 10 11 12 13 13 13 14 15 16 17 18 19 20 20 20 21 20 19 17 16 16 16 18 19 18 16 14 12 11 11 10 10 7 6 5 6 7 8 11 15 16 16 18 20 20
28 26 26 26 26 26 24 22 22 21 21 19 17 17 16 13 12 12 13 14 14 15 15 16 16 15 15 15 16 18 18 15 13 13 12 12 12 12 13 12 11 13 16 19 18 16 18 18 15 13 11 10 11 12 12 12 12 13 14 15 16 17 18 18 18 18 19 19 17 15 15 14 14 14 15 16 17 17 14 11 10 10 10 10 8 7 6 6 7 7 8 10 11 11 12 15 18
28 27 27 27 26 26 24 24 23 23 22 20 19 19 17 15 15 15 16 16 15 15 16 16 16 16 16 17 18 19 18 15 14 13 13 13 12 12 10 8 9 12 16 21 22 20 19 17 16 14 12 11 11 11 11 10 12 13 14 15 16 17 17 17 16 16 17 17 14 13 13 13 13 13 13 15 15 16 15 12 10 10 11 12 11 10 9 9 9 8 8 9 8 8 9 11 15
28 27 27 27 26 26 25 25 25 25 25 23 23 23 20 18 18 18 19 18 16 16 16 17 18 17 18 18 19 19 18 17 16 14 14 13 12 11 8 8 10 11 14 20 22 21 19 16 15 14 11 10 10 9 10 11 11 13 14 15 16 16 16 15 15 14 14 13 12 11 11 12 13 12 12 13 14 14 14 13 11 10 11 13 13 12 11 11 10 9 9 8 7 8 9 11 12
28 28 28 27 26 26 26 26 26 27 28 27 26 25 21 20 20 19 20 20 19 18 18 18 19 19 19 19 19 18 18 17 16 15 15 14 12 10 8 8 10 10 13 17 19 22 20 15 13 14 11 9 9 10 10 10 11 12 14 14 14 15 15 15 14 13 12 11 10 9 10 11 12 13 12 12 13 12 13 13 12 12 12 13 14 12 12 11 10 10 10 9 9 9 9 11 12
28 28 28 27 27 27 27 27 28 29 29 29 28 26 22 22 21 21 22 21 21 21 20 20 21 21 21 20 19 19 18 17 17 16 16 15 13 12 10 8 8 9 11 13 15 19 18 14 12 10 10 10 10 10 10 10 11 12 13 13 14 14 15 15 14 13 12 11 10 9 9 10 11 12 12 12 14 13 13 13 12 13 14 14 15 14 13 12 11 10 10 10 10 10 10 11 12
26 27 28 28 28 28 27 28 29 29 30 30 28 26 23 23 22 22 23 23 24 23 22 22 22 22 22 21 20 20 19 18 17 17 17 16 15 14 12 9 7 7 10 11 12 13 12 13 9 2 5 8 9 10 9 10 11 12 13 13 14 15 16 15 14 14 13 12 11 11 10 10 11 12 12 13 13 13 14 13 13 15 16 16 16 15 14 12 11 11 11 12 12 10 10 11 11
26 28 28 29 28 27 28 29 30 30 30 30 28 26 24 24 23 23 24 26 27 24 24 24 24 23 23 21 21 20 19 18 18 17 17 17 17 17 15 12 9 6 9 13 12 12 11 9 3 4 5 7 9 10 10 11 12 13 13 13 14 15 16 16 14 14 13 13 13 12 11 11 11 12 12 12 12 12 13 14 15 17 18 18 17 17 16 14 13 13 12 13 13 12 12 12 12
28 29 30 30 29 28 28 29 30 30 29 29 28 25 24 24 23 23 26 29 29 26 25 25 25 24 23 22 21 20 20 17 17 17 18 18 18 19 18 14 11 8 10 14 15 14 15 12 5 8 8 7 9 11 12 13 13 13 12 13 14 15 16 16 15 14 13 13 13 12 12 11 11 12 12 12 12 12 14 15 16 17 18 19 18 18 17 16 15 14 14 14 14 14 13 13 13
29 29 30 29 28 28 28 30 31 30 29 29 27 25 24 24 24 25 28 30 29 27 25 25 25 24 23 21 21 21 20 17 15 16 16 16 17 17 17 14 12 12 13 15 17 16 17 16 12 13 12 11 11 13 14 14 13 12 11 11 13 15 16 16 16 15 13 12 12 12 11 11 11 11 12 12 12 13 14 16 17 18 19 19 19 19 19 18 17 16 16 15 15 15 14 14 14
29 29 29 29 28 28 29 30 30 30 29 27 25 24 25 26 26 26 28 28 27 24 22 22 22 22 22 22 22 21 20 16 14 14 14 14 14 14 14 13 12 14 17 18 19 19 19 19 17 15 15 15 15 16 16 15 13 12 11 11 13 14 15 15 16 15 13 11 10 10 10 10 9 10 11 11 12 12 14 15 17 19 19 20 20 20 20 20 20 19 18 17 17 16 15 16 16
28 28 28 28 28 27 28 28 29 29 27 24 22 23 25 26 25 24 25 24 22 21 21 21 20 19 21 22 22 21 18 15 13 12 13 13 12 12 12 12 12 13 16 20 22 22 21 20 16 15 18 19 17 16 16 15 14 13 12 12 13 13 13 13 13 13 11 9 9 9 9 9 8 8 9 10 11 12 13 15 17 18 19 20 21 21 21 21 22 21 21 20 18 17 17 17 17
26 26 26 26 25 25 26 27 27 26 22 20 20 21 22 23 21 20 20 19 18 19 20 21 20 21 22 22 21 19 16 15 12 11 12 13 11 11 9 10 11 10 12 18 21 21 20 18 16 17 20 20 17 16 16 16 16 15 13 12 12 12 11 10 10 11 10 10 9 8 8 9 8 8 8 9 11 12 13 14 15 17 18 20 21 21 21 22 22 22 22 22 20 20 19 18 18
23 23 23 23 23 23 24 25 24 22 20 19 19 19 20 20 18 17 17 16 16 18 20 20 21 22 23 23 21 19 16 14 13 11 11 11 11 10 8 8 10 10 10 13 17 18 18 17 17 18 20 19 17 16 16 17 17 16 14 12 12 12 12 11 11 12 12 12 12 10 9 10 10 10 9 9 10 11 13 14 15 16 17 19 20 21 21 22 22 22 23 23 22 22 21 20 21
20 19 19 20 21 22 23 24 21 19 18 18 18 19 20 19 18 16 16 16 16 18 19 20 22 22 21 21 20 17 13 12 12 10 9 10 10 10 8 9 10 11 11 11 13 14 14 14 15 17 18 17 16 16 17 17 17 16 15 14 13 13 14 13 13 13 13 12 14 15 13 13 13 13 11 11 11 12 13 14 15 16 17 18 19 20 21 22 22 23 23 23 23 23 22 22 22
17 17 17 19 20 22 23 23 20 19 19 19 20 21 21 20 18 17 16 16 17 18 18 20 21 21 19 18 17 14 11 10 10 9 8 8 9 9 9 11 12 13 13 13 13 14 13 12 13 14 15 14 15 15 16 17 16 16 15 15 14 14 14 13 12 13 13 12 14 16 17 17 16 15 13 12 12 13 14 14 16 17 18 18 19 20 21 22 23 23 23 23 24 23 23 23 23
16 16 17 19 21 21 22 22 21 20 20 21 21 22 22 21 19 18 18 18 19 19 19 19 19 19 18 17 15 12 10 10 10 8 8 7 7 8 10 13 15 16 16 17 16 16 15 15 15 14 13 13 14 14 15 16 16 16 15 15 14 13 13 14 13 14 16 15 15 16 17 17 16 15 14 12 12 13 14 15 16 17 18 19 19 20 20 21 22 22 22 23 23 23 23 23 22
16 17 18 20 21 21 22 22 21 21 21 22 23 24 24 22 21 20 19 20 21 22 21 20 18 17 17 15 13 12 11 11 11 9 8 9 9 9 11 15 18 20 21 22 21 20 18 18 16 14 13 12 12 13 14 15 15 15 16 15 15 14 14 15 16 17 19 19 17 16 16 16 16 15 14 13 12 13 13 14 16 17 19 20 20 21 21 21 21 21 22 22 22 22 22 22 22
18 19 20 21 21 22 22 23 23 23 24 25 26 26 25 24 23 22 21 22 23 24 23 21 20 18 16 14 12 12 12 13 13 11 11 12 12 12 14 18 20 22 25 25 23 21 21 19 17 14 12 12 12 12 13 14 14 14 15 16 16 16 16 16 17 18 21 22 20 17 15 15 15 14 14 14 13 13 14 14 15 17 18 20 21 21 21 22 22 22 22 22 22 22 22 22 22
19 20 21 21 22 22 23 24 24 25 26 28 29 28 27 26 25 24 24 24 25 25 24 22 20 18 15 13 13 13 14 15 16 14 15 16 15 14 15 19 20 21 22 23 20 18 19 19 18 15 13 12 12 13 14 15 15 15 15 17 18 18 18 18 18 19 21 23 21 18 15 14 14 14 14 15 14 14 14 14 15 16 18 20 21 22 23 23 23 23 22 22 22 22 22 21 21
19 20 21 21 22 23 24 25 26 27 28 29 29 30 29 28 28 27 25 25 25 25 23 21 19 16 14 13 14 14 15 17 18 17 17 18 18 16 16 19 21 18 17 19 19 16 14 15 17 17 16 14 14 15 16 17 17 18 18 19 20 20 20 20 20 19 19 22 22 19 15 13 14 14 15 15 15 14 14 14 14 15 17 19 21 22 23 23 24 24 23 23 23 22 21 21 20
20 20 21 21 23 24 25 27 28 28 28 29 29 30 31 31 30 29 28 27 27 26 24 22 19 17 15 14 14 15 16 18 19 19 19 20 21 20 19 21 22 18 15 19 22 20 16 12 13 14 15 15 17 18 18 19 19 19 20 20 22 23 23 22 22 21 19 21 23 20 16 14 15 16 17 16 15 14 14 14 14 15 16 18 20 21 22 23 23 24 24 23 23 22 21 20 19
19 19 19 20 21 23 25 27 28 28 28 29 30 30 32 32 31 31 31 30 29 28 26 24 22 20 18 16 16 17 18 19 20 21 21 23 24 23 24 25 24 22 21 23 27 26 22 17 14 13 11 11 15 17 17 18 19 19 21 22 23 24 24 23 23 22 21 21 23 21 18 17 17 18 18 17 16 15 14 14 14 14 16 18 19 20 21 22 22 23 22 22 22 21 20 19 18
20 20 21 21 22 24 25 26 27 28 29 30 31 32 33 33 33 33 33 32 31 30 28 27 25 23 22 20 19 19 20 20 22 23 23 26 27 26 27 28 28 28 27 27 27 26 23 20 17 15 12 11 14 15 15 15 16 18 19 20 21 22 22 22 23 23 22 21 22 22 22 20 20 20 20 19 17 16 15 14 14 14 15 17 19 20 21 21 21 21 21 21 20 20 19 18 17
23 24 24 24 24 24 25 26 27 28 28 30 32 33 34 34 33 33 33 33 33 31 30 29 27 26 26 25 23 23 24 24 24 25 25 27 29 30 30 30 31 31 30 25 23 24 24 20 17 17 15 15 15 13 12 12 14 17 18 19 23 23 22 23 23 23 23 22 23 26 26 23 22 23 22 21 19 17 16 14 14 14 14 15 17 19 21 21 21 21 20 20 19 18 18 17 16
26 26 26 24 24 24 25 26 28 28 29 30 31 33 35 34 33 34 34 34 34 33 32 31 30 29 30 29 28 28 28 28 28 27 28 28 30 33 33 31 31 30 31 28 25 24 25 21 19 19 18 18 16 13 11 12 15 18 19 22 26 27 26 26 27 26 27 25 23 27 29 26 23 23 23 21 20 18 16 15 14 13 13 14 15 17 18 19 19 19 18 18 18 17 17 17 16
27 27 26 24 24 26 26 26 27 28 29 30 30 32 34 35 35 35 35 34 35 34 34 33 33 33 33 33 32 31 30 31 29 28 29 29 32 36 35 32 32 30 32 33 27 24 24 20 19 18 19 20 18 16 14 14 16 17 18 22 25 26 28 28 29 30 31 30 28 29 32 29 25 23 22 22 20 18 17 15 14 13 13 13 14 15 16 16 16 17 17 16 16 16 16 16 16
29 28 26 25 25 26 26 26 27 27 28 29 30 30 32 34 36 36 35 35 35 35 35 35 35 35 35 34 33 31 30 29 29 29 30 31 34 38 35 31 31 32 33 32 27 26 26 21 19 18 19 21 20 18 16 16 17 18 20 21 22 22 23 24 23 22 21 25 27 29 33 30 24 22 22 22 21 18 17 15 15 14 14 14 14 15 15 16 16 17 17 17 16 16 16 16 16
29 29 28 27 26 24 24 25 25 25 26 27 28 29 30 30 31 32 32 32 32 32 32 32 32 32 33 33 32 30 27 26 28 30 31 32 35 38 37 32 30 31 32 30 28 29 28 23 20 18 19 20 20 19 17 16 18 20 22 22 22 21 21 22 21 17 14 14 16 19 24 24 20 19 20 22 21 19 17 16 16 15 15 15 15 15 16 16 17 18 18 18 18 18 18 18 18
29 29 28 27 26 25 25 24 24 25 25 26 27 28 28 26 26 26 25 25 25 25 26 26 27 29 30 31 30 27 26 26 28 30 32 33 34 37 38 35 32 31 32 31 30 29 28 24 21 19 19 20 20 19 18 16 17 20 21 21 22 22 22 22 22 18 14 13 12 13 14 16 16 16 17 20 21 20 19 18 18 17 16 16 15 15 15 16 17 18 19 19 19 19 19 19 18
29 28 26 25 24 24 25 25 25 25 25 26 27 27 26 24 23 22 21 20 19 20 21 22 23 25 27 28 27 25 24 26 27 30 31 32 34 36 38 37 35 34 33 33 32 29 26 23 22 21 21 21 20 19 19 18 18 20 21 21 21 21 21 22 22 20 16 14 13 13 13 14 15 15 15 17 19 19 18 18 18 17 17 17 16 15 15 15 15 16 17 17 18 18 17 17 17
Wind_Direction
257 256 255 255 253 253 253 253 255 255 255 257 257 258 259 258 257 257 256 256 258 260 261 263 263 264 265 266 266 266 267 268 268 267 265 265 266 265 264 263 262 263 263 263 265 267 271 274 276 279 282 286 291 296 301 306 310 309 302 297 298 299 301 304 307 309 311 311 311 311 310 307 305 304 304 303 303 304 304 304 305 304 304 304 303 300 295 290 285 283 276 267 268 259 246 248 259
255 254 253 252 251 252 252 251 253 255 255 257 257 258 259 258 257 256 257 257 258 259 260 260 261 263 265 265 266 266 266 266 266 266 265 265 264 263 262 262 262 262 263 264 265 268 271 274 276 279 282 287 291 296 302 306 308 303 295 293 296 297 299 301 304 307 308 309 309 308 306 305 303 301 301 299 299 301 302 303 304 304 304 303 300 295 290 285 279 275 267 259 257 249 241 242 254
254 253 251 251 251 251 252 251 252 255 256 258 259 259 259 259 258 257 258 258 258 259 260 260 259 261 263 263 263 264 264 264 265 265 264 263 262 261 261 261 262 262 264 265 267 270 271 273 276 280 283 287 291 296 301 303 302 297 293 295 296 297 299 301 302 304 305 306 305 304 303 303 301 298 297 295 296 297 298 300 302 303 302 301 297 291 285 279 273 269 260 252 248 243 239 239 249
253 251 250 250 250 250 251 252 253 255 258 260 260 260 259 259 259 259 259 259 258 260 261 261 259 259 261 261 263 263 262 263 263 262 261 261 260 260 260 261 262 262 263 266 268 270 272 274 277 281 284 287 291 295 298 299 295 292 292 292 292 296 300 300 301 301 301 302 301 300 300 300 298 295 293 292 293 294 295 297 299 300 299 298 295 289 282 275 268 264 254 246 241 239 239 237 245
252 251 250 250 251 250 251 252 253 256 258 258 258 258 258 259 259 260 260 259 260 261 261 262 261 261 261 261 263 262 261 261 261 261 260 260 259 259 260 260 261 262 264 267 270 273 276 277 279 281 283 287 291 294 296 297 290 286 286 283 286 293 296 296 296 296 296 297 296 296 296 296 294 292 292 292 293 294 295 296 297 298 297 296 293 287 281 273 266 260 250 242 236 234 236 237 244
252 251 251 251 251 251 251 253 254 255 255 255 257 258 259 259 258 259 260 260 261 261 262 263 263 263 261 260 260 259 260 261 260 261 261 260 260 259 260 260 260 262 265 268 271 274 276 277 278 279 282 285 289 292 294 293 286 281 278 276 281 286 287 289 290 291 291 291 292 293 293 293 291 291 292 294 296 296 296 296 297 296 296 296 294 288 281 273 265 257 249 240 233 230 233 236 242
252 251 251 251 251 251 252 253 253 253 253 254 256 257 257 257 257 258 259 260 261 261 262 262 263 262 260 260 259 259 260 261 261 261 261 260 260 260 260 261 262 264 266 269 272 275 276 277 279 280 282 284 287 289 290 288 281 277 275 276 277 277 277 279 283 286 286 287 289 290 290 291 291 292 294 297 299 300 300 298 297 294 293 294 294 290 282 275 266 258 249 240 233 229 230 234 239
251 251 250 250 251 250 251 252 253 253 254 254 254 255 255 255 256 257 259 261 261 261 262 261 261 260 260 261 259 260 261 261 262 262 263 263 263 263 263 264 266 268 271 274 277 279 280 282 283 283 283 284 286 287 286 281 276 276 276 275 272 269 268 269 274 278 281 284 287 288 289 290 292 294 296 298 300 299 299 299 296 293 290 287 287 288 284 277 269 260 250 240 233 229 229 232 237
250 250 250 250 251 251 251 251 252 253 253 253 252 252 254 256 257 259 261 262 261 261 261 260 260 259 260 261 259 260 261 261 262 263 265 266 267 267 268 269 272 274 278 281 283 284 286 287 286 286 286 285 284 286 285 274 270 272 272 273 268 263 258 258 264 270 277 281 284 286 289 291 294 296 297 299 301 300 298 296 293 290 287 283 278 278 280 277 270 262 250 240 233 230 229 230 237
250 250 250 250 251 252 251 251 251 251 252 252 251 251 255 259 261 262 262 262 261 260 261 261 260 259 259 260 260 261 261 262 263 265 266 266 268 269 271 273 277 280 283 285 287 288 289 288 288 288 287 287 284 285 284 272 264 259 261 270 267 257 250 251 259 266 274 279 282 285 288 292 294 296 298 301 302 301 298 295 291 286 283 279 274 268 270 272 267 260 249 240 234 231 229 229 236
251 250 250 251 251 251 252 251 251 251 251 252 251 253 257 259 260 260 260 260 261 259 259 260 259 258 258 259 260 261 262 263 264 265 266 267 268 270 272 275 280 282 285 286 287 288 288 287 286 285 284 286 286 283 280 267 254 249 256 266 262 254 248 248 255 263 271 277 282 284 288 291 294 296 298 300 299 298 298 298 291 284 280 276 273 266 262 265 263 257 248 240 234 232 229 227 234
252 251 250 250 251 251 252 252 251 250 250 251 252 255 255 255 257 257 257 258 259 258 256 256 256 256 257 258 259 260 262 263 264 264 265 267 268 271 274 277 281 283 285 287 287 287 287 285 283 282 281 280 280 276 274 264 252 253 255 255 259 259 251 246 250 259 269 275 280 283 287 291 293 295 296 296 295 294 298 301 293 281 277 273 271 267 261 261 261 255 247 241 234 231 229 227 231
252 252 251 250 250 251 251 250 250 249 250 251 253 254 250 249 253 254 253 254 256 256 255 255 254 254 255 255 257 259 260 262 263 265 266 268 270 273 276 279 282 285 287 287 288 287 285 283 281 282 279 273 271 268 269 264 256 255 248 245 254 254 249 249 250 258 267 273 279 284 288 290 291 292 293 293 291 290 293 298 292 278 274 272 269 266 261 258 258 254 248 243 236 230 228 228 230
252 252 251 250 249 249 248 247 248 249 251 251 252 252 247 245 247 250 250 250 252 253 254 255 254 253 253 255 256 258 260 261 263 265 267 270 273 276 279 283 285 287 288 289 289 287 283 278 274 274 271 269 270 265 264 262 255 250 242 239 242 243 253 257 253 259 267 274 280 285 289 290 291 291 292 291 290 290 289 289 285 277 277 277 273 268 263 258 256 253 248 243 238 231 228 227 230
252 252 251 249 248 246 245 245 247 249 250 249 250 249 246 243 243 246 248 247 249 251 252 253 255 254 253 256 256 257 260 262 265 267 269 273 277 281 284 286 287 290 291 291 289 285 278 271 270 267 263 264 267 262 255 251 248 247 242 239 243 250 259 259 257 261 267 275 282 287 290 290 291 291 291 291 291 291 289 285 279 276 278 280 278 273 268 261 256 253 248 242 238 234 230 228 229
251 251 250 249 247 244 242 244 246 248 249 248 248 248 245 243 242 244 246 245 244 248 250 251 255 255 254 256 256 258 260 264 267 270 274 279 284 287 288 290 291 293 293 290 286 282 274 270 277 269 257 253 255 253 248 247 248 252 252 250 252 255 258 261 262 264 270 278 284 288 289 289 291 292 292 293 292 292 290 287 281 278 277 279 279 276 271 264 258 253 248 243 238 236 233 231 230
250 250 250 248 246 242 238 241 245 247 247 246 247 247 245 243 243 243 244 244 243 245 248 250 254 255 254 255 258 262 265 269 273 276 282 287 291 291 292 293 294 295 295 291 284 276 271 271 270 263 258 253 250 250 250 254 255 254 256 254 252 254 257 261 262 266 273 280 285 286 285 287 290 292 293 293 293 292 290 288 284 281 280 280 278 275 270 263 257 253 248 243 238 235 234 234 233
249 249 249 246 241 236 234 239 244 246 246 245 246 247 246 243 243 243 245 247 248 247 248 249 251 253 256 259 264 269 272 275 278 284 288 291 291 290 291 290 291 292 291 293 284 265 259 258 254 254 259 257 250 250 250 252 255 257 258 255 252 253 255 258 262 268 275 280 283 282 282 285 289 291 292 293 294 293 292 290 287 285 283 281 278 274 270 261 255 252 249 245 241 236 233 234 234
249 248 245 239 236 233 233 239 245 247 248 249 249 250 249 246 244 245 248 250 251 248 248 250 251 255 261 266 271 274 277 280 284 287 287 287 285 284 284 282 283 283 280 287 277 254 249 246 249 255 255 250 244 246 249 250 253 257 257 253 250 252 253 258 264 271 277 279 279 280 281 284 287 290 291 293 295 295 294 292 289 287 285 281 277 272 267 260 253 251 249 246 244 239 234 233 234
248 246 239 235 236 234 233 239 246 249 251 252 253 254 254 252 249 246 248 250 251 250 251 253 256 263 268 272 275 277 280 283 285 284 283 283 282 281 279 279 281 278 276 281 267 256 258 248 244 248 250 248 242 242 246 248 250 251 251 250 249 253 257 262 270 275 278 279 279 282 283 285 287 289 292 294 296 296 295 292 288 286 284 281 275 269 262 256 251 249 248 247 245 241 237 233 233
245 242 234 232 236 235 234 239 247 251 251 253 254 258 261 261 257 251 248 249 250 252 254 258 264 270 274 276 278 280 282 282 281 281 281 281 279 278 276 277 278 275 275 275 272 268 264 263 248 235 246 247 245 246 246 248 248 247 249 252 253 257 263 268 274 277 279 281 283 285 286 287 288 290 293 295 296 295 292 288 284 282 280 277 272 266 259 252 250 248 247 247 245 243 238 233 231
241 237 230 230 235 237 238 241 245 248 249 252 256 262 265 264 260 253 250 249 250 253 257 263 269 274 276 278 280 281 280 278 279 280 279 277 276 279 281 281 278 277 267 254 267 257 256 291 271 228 236 239 243 249 249 252 250 248 249 253 257 261 267 272 277 280 283 284 285 286 286 287 288 290 293 295 295 292 288 285 282 279 275 272 267 263 257 251 249 249 248 247 246 244 240 235 230
237 233 229 229 234 238 239 240 242 246 250 254 258 263 264 261 256 250 251 252 254 258 263 266 268 271 275 278 279 278 276 276 277 276 273 273 278 290 298 292 278 271 258 244 249 241 268 296 276 229 230 232 240 246 250 252 250 250 252 256 261 267 273 278 282 284 285 285 286 286 286 286 288 290 293 294 291 286 283 281 279 274 272 271 266 260 254 250 248 249 250 249 248 246 242 236 230
234 230 228 229 232 236 238 238 240 244 250 256 260 263 262 258 254 251 254 257 260 263 265 266 266 268 271 275 276 273 273 274 273 270 269 275 288 305 306 293 272 258 246 233 234 253 280 286 264 235 231 233 242 247 251 253 253 257 260 265 270 274 279 282 285 286 286 286 286 285 284 285 286 290 292 290 286 281 279 279 277 273 272 271 265 258 252 249 248 248 249 250 249 247 245 239 230
232 227 227 228 230 235 238 238 240 242 247 255 259 260 259 254 251 251 256 259 259 262 265 265 265 266 269 272 271 269 270 269 266 264 266 277 289 303 298 286 265 240 222 214 232 272 275 267 253 236 231 235 240 245 251 256 261 267 272 277 280 282 285 286 287 287 287 287 285 282 282 285 288 290 289 285 281 277 275 276 277 277 277 272 264 256 250 250 250 248 249 249 250 248 244 239 231
229 225 226 227 228 235 239 239 241 242 243 250 253 254 254 249 248 251 254 253 251 253 258 259 259 262 267 268 265 264 264 261 257 254 259 271 281 285 281 277 260 232 218 220 242 274 258 253 246 231 228 230 235 244 254 261 268 275 280 284 286 289 289 289 289 289 289 288 285 283 286 291 291 287 283 280 275 273 274 274 276 278 278 275 267 257 250 252 252 250 248 247 253 252 244 238 233
228 225 227 227 229 235 239 240 242 243 243 245 246 248 249 246 247 251 249 245 241 238 241 246 252 259 265 263 259 258 258 253 247 246 253 267 277 273 268 267 255 233 223 226 241 256 247 248 241 228 224 224 235 248 259 269 276 281 285 287 289 292 291 290 290 291 293 291 289 292 297 299 293 285 284 285 279 275 274 272 274 273 272 275 268 252 243 249 253 252 249 247 252 256 248 238 234
229 228 228 228 230 235 238 240 242 243 243 243 243 245 247 245 247 250 247 241 234 229 232 241 249 254 257 258 255 253 251 245 242 247 257 270 273 268 267 270 262 240 226 229 241 240 237 239 231 223 220 222 239 255 267 276 282 286 287 289 292 292 292 293 294 296 297 295 295 299 300 299 295 289 290 293 289 282 272 267 274 269 267 271 250 221 222 239 249 249 248 247 248 250 249 240 232
231 230 230 230 231 234 237 239 241 243 243 243 243 244 244 245 246 246 245 241 233 228 230 239 247 250 252 254 251 249 248 243 243 251 265 274 272 270 274 280 280 263 247 245 243 227 224 230 226 220 219 228 247 261 271 278 283 288 290 293 294 294 295 297 297 299 298 296 298 299 298 295 295 294 294 295 295 288 271 259 270 269 266 264 239 220 234 242 243 240 237 240 241 243 249 245 234
233 231 231 231 232 234 236 238 241 243 244 243 243 243 242 242 243 244 245 244 237 230 228 236 246 250 251 252 249 248 247 244 247 257 270 273 270 271 276 290 295 278 264 258 246 227 220 223 224 222 221 235 252 262 271 280 285 290 295 297 296 296 297 298 298 296 293 294 296 297 295 293 292 293 294 295 296 291 276 259 263 272 268 261 249 242 245 243 240 237 235 236 240 245 248 247 241
233 231 231 232 234 235 235 238 241 243 244 243 242 242 240 239 241 241 243 243 239 233 231 237 246 250 251 250 248 248 247 247 251 261 268 266 267 269 271 293 306 282 251 248 243 229 219 215 214 217 221 235 250 263 273 279 285 291 296 297 296 296 296 296 292 287 284 286 291 292 291 290 291 291 292 295 293 290 283 264 258 273 269 258 255 249 244 241 240 239 241 241 237 240 242 241 241
232 232 231 232 234 235 235 238 241 243 245 244 243 243 241 240 240 240 242 243 240 236 235 239 245 247 248 249 248 248 249 251 256 261 263 260 260 262 265 291 315 291 237 228 226 217 216 214 202 205 217 230 246 259 268 273 283 292 297 298 299 296 292 289 285 281 279 280 286 289 288 288 289 291 291 292 288 286 282 262 255 271 267 258 258 251 243 239 240 245 247 246 239 236 240 242 242
232 232 232 233 234 235 236 238 240 243 246 247 246 245 243 242 243 243 245 246 243 239 238 241 244 244 243 246 249 250 252 256 259 262 262 262 259 258 261 280 315 295 240 219 212 210 212 208 190 191 209 224 244 253 259 271 284 292 296 298 298 293 287 286 286 288 288 288 289 290 290 289 289 291 292 291 288 286 281 266 262 272 267 261 260 251 243 237 237 243 247 251 250 248 248 250 252
230 231 233 232 233 236 236 238 240 241 244 247 247 246 245 244 245 247 249 249 246 240 238 240 241 239 239 242 246 250 253 256 259 262 263 265 263 260 261 265 294 289 238 219 214 211 205 190 177 189 223 224 242 249 257 272 283 288 290 292 293 290 285 284 288 291 293 293 292 290 290 290 289 290 291 291 290 288 285 279 274 272 267 265 260 250 241 235 234 237 242 250 255 258 260 261 264
226 227 229 231 231 233 235 237 238 240 242 245 247 247 246 246 246 248 250 250 248 242 237 237 236 233 234 237 242 248 252 253 256 260 262 263 263 264 264 259 268 267 220 214 220 227 219 195 187 321 270 234 242 248 259 269 277 283 285 287 287 285 282 283 286 289 291 291 290 288 286 286 286 286 287 286 284 281 278 277 273 268 267 267 262 252 241 235 236 237 241 251 257 259 262 266 270
221 223 225 228 229 229 232 235 238 239 242 245 246 247 249 251 249 247 247 248 249 244 237 234 232 230 231 233 237 243 247 249 251 257 259 262 263 265 268 261 251 238 212 211 221 230 226 219 265 303 277 258 254 257 265 269 276 282 282 284 283 282 283 286 289 288 287 286 286 285 282 281 281 282 282 278 275 271 268 268 267 265 265 267 265 257 247 240 239 241 244 250 256 260 263 267 269
222 223 224 227 228 228 230 234 239 241 242 244 247 250 252 252 248 244 244 246 246 244 238 234 232 231 231 232 235 239 243 244 245 249 252 258 262 263 267 265 243 223 214 211 214 219 220 231 275 301 284 273 272 273 275 276 279 282 282 280 279 281 283 286 287 283 281 282 283 282 278 277 278 279 278 274 270 266 264 262 261 261 262 263 264 260 254 249 245 245 247 249 254 260 265 268 268
226 226 227 228 228 228 230 234 239 242 244 246 249 251 250 248 245 242 243 244 244 241 236 233 234 234 233 231 233 236 240 241 239 238 241 248 255 257 260 261 246 227 220 217 218 225 234 248 274 287 273 269 275 279 281 281 281 279 278 279 278 279 279 280 280 279 279 282 284 283 279 276 276 279 279 275 269 264 262 260 258 258 257 258 259 258 256 253 251 251 251 253 256 261 265 268 270
229 230 230 230 229 230 233 235 239 243 246 248 248 247 245 244 243 240 240 240 237 233 229 225 224 228 230 230 232 234 236 238 234 230 232 237 244 250 252 253 253 243 232 230 232 239 248 256 264 264 263 267 271 274 277 279 279 275 273 277 279 277 274 275 277 279 284 289 291 290 288 285 282 285 285 281 274 266 262 260 259 258 257 257 257 256 255 253 254 255 255 256 259 262 264 267 272
232 233 232 232 232 233 235 238 241 244 245 242 239 238 239 241 240 236 235 233 226 224 223 219 214 215 219 222 225 228 229 230 228 223 225 230 235 240 246 250 250 243 236 235 237 242 250 256 257 257 261 264 265 267 271 275 274 272 274 278 279 277 274 273 277 284 289 293 295 298 301 301 296 292 289 285 279 271 265 262 261 259 258 258 257 256 255 254 255 257 258 259 261 264 266 269 272
233 235 236 234 233 232 234 238 240 241 239 233 229 229 233 238 235 229 228 224 217 217 219 218 215 215 219 222 224 225 225 225 222 213 214 225 232 234 241 250 242 236 244 245 239 241 247 250 250 252 255 257 258 261 266 270 271 272 277 279 278 277 274 274 282 286 287 287 288 292 301 309 307 301 294 289 284 276 268 264 262 260 258 256 256 256 256 256 257 258 260 262 264 266 268 271 273
234 236 235 231 228 228 231 236 237 235 231 225 222 222 226 234 233 225 222 218 214 214 215 215 212 214 221 226 229 228 223 219 214 203 205 220 229 235 247 257 248 245 254 255 248 246 249 248 246 246 249 251 255 260 264 267 270 274 279 281 280 279 275 275 283 287 289 289 285 284 289 298 304 301 294 289 286 281 273 266 262 260 257 255 254 254 254 255 257 257 259 262 264 266 268 270 272
232 231 229 227 226 226 229 232 232 228 224 221 221 220 222 230 230 224 219 217 214 211 209 210 209 212 221 225 228 226 217 214 209 197 201 214 226 242 256 262 260 255 255 254 253 254 254 252 248 246 247 251 255 260 263 265 268 273 279 283 284 282 275 271 278 289 297 301 294 288 288 293 297 296 291 285 281 278 274 269 265 261 258 255 253 251 250 251 252 253 254 256 260 262 265 267 269
230 228 226 226 226 225 226 228 226 223 220 219 221 220 220 225 226 225 222 216 210 205 204 210 213 215 220 222 223 224 223 227 221 208 206 210 226 251 262 261 259 258 258 258 256 254 252 248 247 247 249 251 255 260 265 267 269 272 276 281 284 283 276 270 275 288 297 302 303 299 295 295 295 293 290 287 281 275 270 266 263 261 259 255 252 250 248 248 249 249 251 253 255 257 260 262 265
227 226 227 228 227 225 224 224 222 220 218 216 220 222 221 222 223 224 223 216 205 202 204 209 213 214 215 218 222 228 237 243 241 233 227 224 231 249 255 255 256 256 255 252 248 244 241 238 237 239 244 250 257 264 269 271 271 272 273 275 278 278 274 271 275 285 293 298 303 303 299 296 293 289 286 284 282 277 270 265 260 259 258 256 253 251 249 249 249 250 251 252 255 257 259 261 263
226 227 228 228 228 227 226 224 220 219 218 216 218 222 222 223 225 225 223 218 209 206 208 211 215 216 217 222 230 237 245 253 257 254 251 247 241 242 248 252 257 258 249 238 232 229 227 228 229 229 234 241 250 258 263 266 267 267 268 270 273 275 274 274 276 283 290 294 299 301 297 294 291 285 281 278 276 274 270 266 263 260 260 259 258 255 253 252 251 252 253 255 257 258 260 262 263
229 231 232 231 230 230 228 226 223 220 220 219 220 224 226 226 229 229 225 221 218 216 218 221 222 220 222 229 238 246 251 256 260 261 260 259 251 245 250 255 264 269 255 237 225 220 218 217 220 224 227 232 241 249 254 259 261 262 265 268 270 272 273 273 277 282 287 290 295 299 294 293 293 288 282 275 269 267 264 262 262 261 261 260 260 259 257 256 255 255 256 257 258 259 260 261 262
233 236 237 235 234 233 231 228 227 224 222 223 224 227 229 228 230 233 230 227 227 227 229 231 228 225 227 236 244 249 249 250 255 259 261 265 264 259 256 258 268 278 270 253 242 234 224 212 212 214 214 221 233 243 250 254 258 260 262 264 266 266 266 268 272 277 281 284 289 293 290 291 295 292 286 279 270 264 262 260 259 259 260 259 259 259 258 257 257 256 257 257 257 258 258 259 259
235 237 238 237 236 235 234 232 232 231 228 227 227 229 230 229 230 233 231 231 233 234 237 237 234 235 238 247 255 255 254 253 257 262 265 269 270 266 259 258 263 264 262 257 249 247 248 233 216 209 202 210 225 236 245 250 255 259 261 263 265 267 268 270 273 273 273 277 283 286 284 284 289 288 285 280 274 268 263 260 260 260 261 260 258 257 256 256 256 256 256 256 256 257 257 257 258
242 243 243 242 241 241 239 238 238 238 235 232 230 230 230 229 232 233 232 233 235 237 240 240 240 240 242 251 256 256 260 262 264 266 265 267 268 264 256 253 255 252 248 246 243 246 253 245 232 224 214 216 225 231 241 248 254 260 263 267 269 271 274 276 278 275 270 273 280 283 282 281 282 280 278 275 271 268 263 259 260 261 263 264 262 259 256 254 253 254 254 255 255 256 257 257 257
244 244 243 242 242 243 243 244 243 242 240 236 234 233 231 230 231 235 235 235 236 238 240 241 243 243 245 251 253 253 259 263 265 265 263 265 265 262 259 261 265 258 244 238 241 243 246 244 239 237 239 243 237 233 240 250 259 265 269 274 276 277 279 279 279 277 270 268 274 280 281 280 277 273 271 269 265 262 259 256 256 258 261 265 265 263 259 256 253 252 252 253 254 254 255 256 256
243 243 243 244 245 246 246 246 245 244 241 239 236 235 235 233 232 235 238 239 240 241 242 243 244 246 247 251 254 258 263 266 265 264 263 265 266 266 268 271 271 258 240 241 253 248 240 235 229 232 248 259 254 247 249 257 267 271 273 277 276 274 276 277 279 281 276 267 267 273 274 274 273 269 265 263 260 256 253 252 252 253 257 262 265 265 263 260 257 255 254 254 255 257 258 259 260
242 245 246 247 248 248 246 245 246 244 242 241 239 236 237 236 233 234 236 240 243 244 245 247 248 250 251 253 256 258 263 267 265 262 262 264 267 269 266 263 261 251 241 251 263 250 234 227 221 231 255 265 264 265 269 270 272 274 276 277 276 274 277 280 281 284 280 270 268 269 267 265 265 262 260 258 255 251 248 247 247 248 253 258 263 265 264 262 260 258 257 257 258 259 261 263 264
238 242 245 245 245 244 242 241 242 242 242 242 241 239 237 237 236 236 236 238 242 244 247 249 251 254 256 258 259 259 262 264 261 257 257 259 264 263 256 251 253 251 247 252 255 238 227 232 237 247 262 266 267 274 275 272 274 278 281 284 285 284 285 286 287 286 277 265 265 266 261 259 257 252 251 252 249 245 242 241 243 246 250 254 258 261 262 262 260 259 258 257 257 258 259 261 262
235 237 240 241 241 243 243 242 241 243 242 242 242 241 240 240 239 240 240 241 244 246 249 252 254 257 259 261 263 263 263 259 251 248 248 251 256 257 252 248 251 254 252 253 254 238 231 245 258 259 264 267 271 275 274 274 276 281 284 289 297 298 296 294 296 301 285 261 259 260 255 254 251 246 246 247 244 242 240 240 242 244 248 251 254 258 260 261 261 260 258 256 254 253 254 255 257
237 236 236 238 239 240 242 242 242 244 244 243 243 243 243 243 244 245 246 247 249 251 253 255 257 260 263 264 265 264 259 251 244 244 245 249 252 253 252 251 252 253 250 254 258 248 242 255 262 257 259 265 269 272 276 281 283 286 288 290 297 301 302 298 298 311 311 278 262 256 252 253 253 249 247 245 245 244 244 244 244 246 249 252 256 259 263 265 267 266 265 263 260 258 257 257 257
236 237 237 239 241 239 239 240 240 241 243 243 243 245 246 248 250 251 253 254 255 257 258 259 260 261 263 264 263 260 255 247 243 242 244 248 251 250 250 253 256 253 249 254 261 256 254 261 259 252 255 260 265 271 277 284 287 292 296 297 298 298 297 297 298 304 308 295 276 259 254 257 258 253 248 245 245 247 249 250 250 250 251 253 258 263 266 269 271 272 271 269 268 266 264 262 261
234 236 238 239 241 242 241 242 243 243 244 245 246 248 249 251 253 255 258 259 260 260 259 259 259 258 259 259 256 253 250 245 242 241 242 245 250 250 251 255 258 257 255 257 260 259 261 261 254 252 256 259 265 273 279 285 288 292 296 297 297 295 292 294 297 299 299 294 280 263 257 259 258 252 246 243 245 249 252 251 250 249 250 251 255 258 262 267 271 274 275 274 272 270 266 263 261